EW8567 Weather Reports


time (UTC)temp
F
wind
direction
speed
knots
gust
knots
rain 1hr
in
rain 24hr
in
rain mn
in
humidity
%
barometer
mb
20260508190518 53 0 0.0 0.0 0.00 0.00 0.00 89 1005.8
20260508190022 53 0 0.0 0.0 0.00 0.00 0.00 88 1005.8
20260508185518 53 0 0.0 0.0 0.00 0.00 0.00 88 1005.9
20260508185022 53 68 0.0 1.7 0.00 0.00 0.00 87 1005.9
20260508184518 54 68 0.0 1.7 0.00 0.00 0.00 87 1006.0
20260508184021 54 0 0.0 0.0 0.00 0.00 0.00 88 1006.0
20260508183518 54 0 0.0 0.0 0.00 0.00 0.00 88 1006.2
20260508183022 54 0 0.0 0.0 0.00 0.00 0.00 88 1006.3
20260508182518 54 0 0.0 0.0 0.00 0.00 0.00 88 1006.3
20260508182021 54 0 0.0 0.0 0.00 0.00 0.00 87 1006.3
20260508181518 54 0 0.0 0.0 0.00 0.00 0.00 87 1006.3
20260508181022 54 0 0.0 0.0 0.00 0.00 0.00 86 1006.4
20260508180518 55 0 0.0 0.0 0.00 0.00 0.00 86 1006.4
20260508180022 55 0 0.0 0.0 0.00 0.00 0.00 86 1006.3
20260508175518 55 0 0.0 0.0 0.00 0.00 0.00 85 1006.5
20260508175022 55 0 0.0 0.0 0.00 0.00 0.00 85 1006.5
20260508174518 55 0 0.0 0.0 0.00 0.00 0.00 86 1006.7
20260508174022 55 0 0.0 0.0 0.00 0.00 0.00 85 1006.6
20260508173518 55 0 0.0 0.0 0.00 0.00 0.00 85 1006.7
20260508173021 55 68 0.0 1.7 0.00 0.00 0.00 84 1006.9
20260508172519 56 69 0.0 1.7 0.00 0.00 0.00 84 1006.9
20260508172021 56 69 0.0 1.7 0.00 0.00 0.00 83 1007.0
20260508171518 56 69 0.0 1.7 0.00 0.00 0.00 82 1007.0
20260508171022 57 68 0.0 1.7 0.00 0.00 0.00 82 1007.0
20260508170518 57 68 0.0 1.7 0.00 0.00 0.00 81 1007.0
20260508170021 58 0 0.0 0.0 0.00 0.00 0.00 80 1007.0
20260508165518 58 0 0.0 0.0 0.00 0.00 0.00 79 1007.0
20260508165022 58 0 0.0 0.0 0.00 0.00 0.00 79 1006.9
20260508164518 59 68 0.0 1.7 0.00 0.00 0.00 78 1006.9
20260508164022 59 68 0.0 1.7 0.00 0.00 0.00 77 1006.9
20260508163518 59 68 0.0 1.7 0.00 0.00 0.00 76 1007.0
20260508163021 59 68 0.0 1.7 0.00 0.00 0.00 77 1006.9
20260508162520 59 0 0.0 0.0 0.00 0.00 0.00 76 1006.8
20260508162021 60 0 0.0 0.0 0.00 0.00 0.00 75 1007.0
20260508161518 60 0 0.0 0.0 0.00 0.00 0.00 74 1006.8
20260508161021 61 0 0.0 0.0 0.00 0.00 0.00 73 1006.8
20260508160518 61 0 0.0 0.0 0.00 0.00 0.00 72 1006.8
20260508155021 62 68 0.0 1.7 0.00 0.00 0.00 71 1006.8
20260508154518 62 68 0.0 1.7 0.00 0.00 0.00 70 1006.9
20260508154021 63 68 0.0 1.7 0.00 0.00 0.00 69 1006.8
20260508153518 64 90 0.0 1.7 0.00 0.00 0.00 67 1006.8
20260508153021 64 90 0.0 1.7 0.00 0.00 0.00 66 1006.7
20260508152518 65 90 0.0 1.7 0.00 0.00 0.00 65 1006.7
20260508152021 65 90 0.0 1.7 0.00 0.00 0.00 65 1006.7
20260508151021 66 87 0.9 3.5 0.00 0.00 0.00 64 1006.7
20260508150518 66 88 0.9 3.5 0.00 0.00 0.00 63 1006.9
20260508150022 66 85 0.9 1.7 0.00 0.00 0.00 63 1006.8
20260508145518 67 85 0.9 1.7 0.00 0.00 0.00 63 1006.9
20260508144021 68 83 0.9 3.5 0.00 0.00 0.00 61 1006.9
20260508143518 68 93 0.9 1.7 0.00 0.00 0.00 61 1006.9
20260508143021 68 100 0.0 1.7 0.00 0.00 0.00 60 1006.8
20260508142021 69 95 0.9 1.7 0.00 0.00 0.00 58 1006.8
20260508141518 70 90 0.9 3.5 0.00 0.00 0.00 58 1006.8
20260508141021 70 96 0.9 3.5 0.00 0.00 0.00 57 1007.0
20260508140517 70 91 0.9 3.5 0.00 0.00 0.00 57 1006.9
20260508135021 69 85 0.9 3.5 0.00 0.00 0.00 57 1007.0
20260508134518 69 93 0.9 3.5 0.00 0.00 0.00 56 1007.1
20260508133518 70 91 0.9 3.5 0.00 0.00 0.00 56 1007.1
20260508133022 70 91 1.7 3.5 0.00 0.00 0.00 56 1007.3
20260508132021 70 90 1.7 6.1 0.00 0.00 0.00 56 1007.4
20260508131021 71 103 2.6 7.8 0.00 0.00 0.00 57 1007.4
20260508130021 71 107 2.6 9.6 0.00 0.00 0.00 57 1007.6
20260508125518 72 80 2.6 9.6 0.00 0.00 0.00 56 1007.7
20260508125021 73 75 2.6 9.6 0.00 0.00 0.00 55 1007.6
20260508124021 73 65 2.6 7.0 0.00 0.00 0.00 50 1007.6
20260508123022 72 41 3.5 7.0 0.00 0.00 0.00 51 1007.8
20260508122008 72 35 2.6 7.0 0.00 0.00 0.00 51 1007.8
20260508121008 72 51 3.5 7.8 0.00 0.00 0.00 51 1008.0
20260508120505 72 54 2.6 7.0 0.00 0.00 0.00 51 1008.1
20260508115009 72 50 3.5 7.8 0.00 0.00 0.00 50 1008.2
20260508114504 72 24 3.5 7.8 0.00 0.00 0.00 52 1008.2
20260508112504 71 47 2.6 7.8 0.00 0.00 0.00 52 1008.2
20260508112008 71 55 2.6 7.8 0.00 0.00 0.00 53 1008.5
20260508111505 71 61 1.7 6.1 0.00 0.00 0.00 54 1008.5
20260508111008 70 58 2.6 5.2 0.00 0.00 0.00 53 1008.6
20260508110504 70 36 2.6 6.1 0.00 0.00 0.00 53 1008.6
20260508110009 70 36 2.6 6.1 0.00 0.00 0.00 53 1008.5
20260508105505 70 44 1.7 3.5 0.00 0.00 0.00 53 1008.6
20260508104505 70 26 2.6 6.1 0.00 0.00 0.00 53 1008.9
20260508104008 70 23 1.7 5.2 0.00 0.00 0.00 53 1008.8
20260508103504 70 37 1.7 6.1 0.00 0.00 0.00 52 1008.8
20260508103008 70 44 2.6 6.1 0.00 0.00 0.00 52 1008.9
20260508102505 70 43 1.7 5.2 0.00 0.00 0.00 52 1008.9
20260508101505 70 74 3.5 7.8 0.00 0.00 0.00 52 1009.0
20260508100505 70 33 1.7 7.0 0.00 0.00 0.00 51 1008.9
20260508100008 70 32 1.7 5.2 0.00 0.00 0.00 52 1009.0
20260508095504 70 49 2.6 5.2 0.00 0.00 0.00 52 1009.0
20260508095008 70 65 2.6 6.1 0.00 0.00 0.00 51 1009.1
20260508094505 70 60 2.6 6.1 0.00 0.00 0.00 52 1009.1
20260508094008 70 51 2.6 7.0 0.00 0.00 0.00 52 1009.3
20260508093505 70 42 2.6 7.0 0.00 0.00 0.00 51 1009.4
20260508093008 69 38 2.6 7.0 0.00 0.00 0.00 51 1009.5
20260508092504 70 55 2.6 7.0 0.00 0.00 0.00 50 1009.4
20260508091505 69 61 2.6 7.0 0.00 0.00 0.00 53 1009.5
20260508090505 69 69 2.6 7.0 0.00 0.00 0.00 52 1009.5
20260508085505 69 71 3.5 7.0 0.00 0.00 0.00 52 1009.4
20260508085008 69 73 3.5 9.6 0.00 0.00 0.00 53 1009.6
20260508084504 69 58 3.5 9.6 0.00 0.00 0.00 52 1009.6
20260508084009 68 45 3.5 7.8 0.00 0.00 0.00 53 1009.7
20260508083008 67 32 3.5 7.0 0.00 0.00 0.00 54 1009.7
20260508082505 67 52 2.6 7.0 0.00 0.00 0.00 54 1009.8
20260508082008 67 48 2.6 7.8 0.00 0.00 0.00 54 1009.7
20260508081505 67 41 3.5 7.8 0.00 0.00 0.00 54 1009.9
20260508081008 67 45 3.5 7.8 0.00 0.00 0.00 53 1009.9
20260508080505 67 50 3.5 9.6 0.00 0.00 0.00 54 1010.0
20260508080008 68 64 3.5 9.6 0.00 0.00 0.00 54 1009.9
20260508075505 67 62 4.3 9.6 0.00 0.00 0.00 54 1010.0
20260508075008 66 63 4.3 9.6 0.00 0.00 0.00 55 1009.9
20260508074009 67 33 2.6 7.0 0.00 0.00 0.00 54 1010.1
20260508073008 67 25 3.5 7.0 0.00 0.00 0.00 56 1010.2
20260508072008 64 22 3.5 9.6 0.00 0.00 0.00 58 1010.3
20260508071505 64 22 3.5 7.8 0.00 0.00 0.00 60 1010.3
20260508071008 64 44 3.5 7.0 0.00 0.00 0.00 61 1010.2
20260508070008 64 24 2.6 7.0 0.00 0.00 0.00 63 1010.4
20260508065008 63 2 2.6 7.0 0.00 0.00 0.00 64 1010.3
20260508064008 62 34 2.6 7.0 0.00 0.00 0.00 65 1010.3
20260508063505 63 17 3.5 9.6 0.00 0.00 0.00 66 1010.3
20260508062505 62 68 4.3 11.3 0.00 0.00 0.00 65 1010.2
20260508062007 62 43 4.3 11.3 0.00 0.00 0.00 68 1010.3
20260508061505 63 28 3.5 7.8 0.00 0.00 0.00 67 1010.3
20260508061008 63 11 3.5 7.0 0.00 0.00 0.00 67 1010.4
20260508055505 62 56 1.7 3.5 0.00 0.00 0.00 69 1010.4
20260508054505 61 8 1.7 5.2 0.00 0.00 0.00 70 1010.5
20260508054008 61 4 1.7 5.2 0.00 0.00 0.00 72 1010.4
20260508053008 61 351 2.6 6.1 0.00 0.00 0.00 72 1010.4
20260508052505 60 349 2.6 6.1 0.00 0.00 0.00 73 1010.3
20260508052007 60 349 2.6 5.2 0.00 0.00 0.00 72 1010.4
20260508051505 61 357 1.7 5.2 0.00 0.00 0.00 72 1010.3
20260508045008 60 35 1.7 5.2 0.00 0.00 0.00 74 1010.2
20260508044504 59 25 1.7 5.2 0.00 0.00 0.00 75 1010.0
20260508044008 59 23 2.6 5.2 0.00 0.00 0.00 75 1010.1
20260508042008 59 55 2.6 6.1 0.00 0.00 0.00 74 1010.2
20260508041505 59 53 1.7 6.1 0.00 0.00 0.00 74 1010.1
20260508041008 59 45 1.7 6.1 0.00 0.00 0.00 75 1010.1
20260508040505 59 40 1.7 6.1 0.00 0.00 0.00 75 1010.1
20260508040008 59 52 2.6 7.0 0.00 0.00 0.00 75 1010.0
20260508035504 58 59 2.6 7.0 0.00 0.00 0.00 75 1009.9
20260508035008 58 60 2.6 6.1 0.00 0.00 0.00 75 1009.8
20260508034504 58 53 1.7 6.1 0.00 0.00 0.00 75 1009.9
20260508034008 58 43 2.6 6.1 0.00 0.00 0.00 76 1010.0
20260508033504 58 47 2.6 6.1 0.00 0.00 0.00 76 1009.9
20260508033009 58 40 2.6 7.0 0.00 0.00 0.00 77 1010.0
20260508032505 58 36 1.7 7.0 0.00 0.00 0.00 77 1009.9
20260508032008 58 44 2.6 7.0 0.00 0.00 0.00 78 1010.0
20260508031505 57 39 2.6 6.1 0.00 0.00 0.00 78 1009.9
20260508031008 57 35 2.6 7.0 0.00 0.00 0.00 79 1009.9
20260508030505 57 32 1.7 7.0 0.00 0.00 0.00 80 1010.0
20260508030008 57 39 1.7 7.0 0.00 0.00 0.00 80 1010.1
20260508025505 56 47 1.7 5.2 0.00 0.00 0.00 81 1010.1
20260508025008 56 33 2.6 7.0 0.00 0.00 0.00 82 1010.2
20260508024504 56 36 2.6 7.0 0.00 0.00 0.00 82 1010.1
20260508024009 56 45 1.7 5.2 0.00 0.00 0.00 82 1010.1
20260508023505 55 46 2.6 6.1 0.00 0.00 0.00 83 1010.0
20260508023007 55 49 1.7 6.1 0.00 0.00 0.00 83 1010.0
20260508022505 55 37 1.7 5.2 0.00 0.00 0.00 83 1010.0
20260508022008 55 14 1.7 5.2 0.00 0.00 0.00 84 1010.0
20260508021505 55 357 0.9 3.5 0.00 0.00 0.00 84 1009.9
20260508021007 55 7 0.9 5.2 0.00 0.00 0.00 84 1009.9
20260508020505 55 4 1.7 5.2 0.00 0.00 0.00 84 1009.9
20260508020008 55 353 1.7 5.2 0.00 0.00 0.00 84 1009.9
20260508015505 55 344 1.7 5.2 0.00 0.00 0.00 84 1010.0
20260508015008 55 320 0.0 3.5 0.00 0.00 0.00 85 1009.9
20260508014505 54 270 0.0 1.7 0.00 0.00 0.00 86 1009.9
20260508014008 53 238 0.0 1.7 0.00 0.00 0.00 87 1009.8
20260508013505 52 225 0.0 1.7 0.00 0.00 0.00 88 1009.9
20260508013007 50 225 0.0 1.7 0.00 0.00 0.00 88 1010.0
20260508012505 50 225 0.0 1.7 0.00 0.00 0.00 88 1010.0
20260508012007 50 234 0.0 1.7 0.00 0.00 0.00 88 1009.9
20260508011505 49 266 0.0 1.7 0.00 0.00 0.00 89 1009.8
20260508011007 49 270 0.0 1.7 0.00 0.00 0.00 89 1009.8
20260508010505 48 270 0.0 1.7 0.00 0.00 0.00 89 1009.8
20260508010008 48 270 0.0 1.7 0.00 0.00 0.00 89 1009.8
20260508005505 47 254 0.0 1.7 0.00 0.00 0.00 89 1009.8
20260508005007 47 245 0.0 1.7 0.00 0.00 0.00 89 1009.8
20260508004505 47 225 0.0 1.7 0.00 0.00 0.00 89 1009.8
20260508004007 47 208 0.0 1.7 0.00 0.00 0.00 89 1009.8
20260508003505 47 203 0.0 1.7 0.00 0.00 0.00 88 1009.7
20260508003008 47 203 0.0 1.7 0.00 0.00 0.00 88 1009.7
20260508002505 47 203 0.0 1.7 0.00 0.00 0.00 89 1009.6
20260508002007 47 0 0.0 0.0 0.00 0.00 0.00 88 1009.6
20260508001505 46 0 0.0 0.0 0.00 0.00 0.00 88 1009.5
20260508001008 46 0 0.0 0.0 0.00 0.00 0.00 88 1009.5
20260508000505 46 0 0.0 0.0 0.00 0.00 0.00 88 1009.5
20260508000008 46 203 0.0 1.7 0.00 0.00 0.00 88 1009.4
20260507235505 46 223 0.9 1.7 0.00 0.00 0.00 88 1009.4
20260507235007 47 246 0.0 1.7 0.00 0.00 0.00 87 1009.4
20260507234505 46 0 0.0 0.0 0.00 0.00 0.00 88 1009.4
20260507234007 46 292 0.0 1.7 0.00 0.00 0.00 87 1009.3
20260507233505 46 292 0.0 1.7 0.00 0.00 0.00 87 1009.3
20260507233007 47 290 0.9 1.7 0.00 0.00 0.00 87 1009.1
20260507232505 47 269 0.9 1.7 0.00 0.00 0.00 86 1009.2
20260507232009 48 291 0.9 3.5 0.00 0.00 0.00 84 1009.3
20260507231504 51 308 0.9 3.5 0.00 0.00 0.00 85 1009.4
20260507231008 49 302 0.9 3.5 0.00 0.00 0.00 87 1009.4
20260507230504 48 333 0.0 1.7 0.00 0.00 0.00 85 1009.4
20260507230008 48 341 0.0 1.7 0.00 0.00 0.00 86 1009.2
20260507225504 47 0 0.0 0.0 0.00 0.00 0.00 85 1009.3
20260507225008 47 292 0.0 1.7 0.00 0.00 0.00 87 1009.2
20260507224505 47 292 0.0 1.7 0.00 0.00 0.00 87 1009.1
20260507224008 47 292 0.0 1.7 0.00 0.00 0.00 87 1009.2
20260507223504 46 0 0.0 0.0 0.00 0.00 0.00 86 1009.2
20260507223008 46 0 0.0 0.0 0.00 0.00 0.00 86 1009.1
20260507222505 46 0 0.0 0.0 0.00 0.00 0.00 85 1009.1
20260507222008 47 0 0.0 0.0 0.00 0.00 0.00 85 1009.0
20260507221504 47 0 0.0 0.0 0.00 0.00 0.00 85 1009.1
20260507221009 47 0 0.0 0.0 0.00 0.00 0.00 85 1009.0
20260507220505 47 0 0.0 0.0 0.00 0.00 0.00 85 1009.1
20260507220008 47 0 0.0 0.0 0.00 0.00 0.00 85 1009.1
20260507215504 47 0 0.0 0.0 0.00 0.00 0.00 85 1009.0
20260507215007 47 0 0.0 0.0 0.00 0.00 0.00 85 1009.0
20260507214505 47 0 0.0 0.0 0.00 0.00 0.00 84 1009.0
20260507214008 47 0 0.0 0.0 0.00 0.00 0.00 84 1009.0
20260507213504 47 0 0.0 0.0 0.00 0.00 0.00 84 1009.0
20260507213007 48 0 0.0 0.0 0.00 0.00 0.00 83 1008.9
20260507212505 48 0 0.0 0.0 0.00 0.00 0.00 83 1009.0
20260507212007 48 0 0.0 0.0 0.00 0.00 0.00 83 1009.0
20260507211505 48 292 0.0 1.7 0.00 0.00 0.00 83 1009.0
20260507211007 48 292 0.0 1.7 0.00 0.00 0.00 82 1009.0
20260507210505 49 294 0.0 1.7 0.00 0.00 0.00 82 1009.1
20260507210008 49 296 0.0 1.7 0.00 0.00 0.00 81 1009.1
20260507205504 49 342 0.0 1.7 0.00 0.00 0.00 81 1009.2
20260507205008 50 287 0.0 1.7 0.00 0.00 0.00 80 1009.1
20260507204505 50 272 0.0 1.7 0.00 0.00 0.00 80 1009.2
20260507204007 50 0 0.0 0.0 0.00 0.00 0.00 80 1009.2
20260507203504 50 203 0.0 1.7 0.00 0.00 0.00 80 1009.3
20260507203008 50 218 0.0 1.7 0.00 0.00 0.00 79 1009.4
20260507202505 50 270 0.0 1.7 0.00 0.00 0.00 79 1009.3
20260507202008 51 287 0.0 1.7 0.00 0.00 0.00 79 1009.3
20260507201504 50 282 0.0 1.7 0.00 0.00 0.00 79 1009.1
20260507201008 51 259 0.9 1.7 0.00 0.00 0.00 79 1009.2
20260507200504 51 268 0.9 1.7 0.00 0.00 0.00 78 1009.3
20260507200009 51 290 0.9 1.7 0.00 0.00 0.00 77 1009.3
20260507195504 52 288 0.9 1.7 0.00 0.00 0.00 76 1009.4
20260507195007 52 286 0.9 1.7 0.00 0.00 0.00 76 1009.3
20260507194505 53 68 0.0 1.7 0.00 0.00 0.00 74 1009.3
20260507194008 53 69 0.0 1.7 0.00 0.00 0.00 74 1009.2
20260507193504 53 69 0.0 1.7 0.00 0.00 0.00 73 1009.2
20260507193008 53 87 0.0 1.7 0.00 0.00 0.00 74 1009.3
20260507192504 53 135 0.0 1.7 0.00 0.00 0.00 74 1009.3
20260507192008 53 0 0.0 0.0 0.00 0.00 0.00 74 1009.3
20260507191504 53 0 0.0 0.0 0.00 0.00 0.00 74 1009.4
20260507191008 53 0 0.0 0.0 0.00 0.00 0.00 74 1009.3